GW3800 Weather Reports


time (UTC)temp
F
wind
direction
speed
knots
gust
knots
rain 1hr
in
rain 24hr
in
rain mn
in
humidity
%
barometer
mb
20260510142638 52 278 1.7 3.5 0.00 0.00 0.00 93 1012.7
20260510142135 51 301 0.0 0.9 0.00 0.00 0.00 93 1012.6
20260510141631 52 282 1.7 1.7 0.00 0.00 0.00 93 1012.8
20260510141130 52 112 0.9 1.7 0.00 0.00 0.00 93 1012.7
20260510140626 53 216 1.7 5.2 0.00 0.00 0.00 92 1012.5
20260510140125 53 300 1.7 2.6 0.00 0.00 0.00 92 1012.4
20260510135621 54 157 0.0 0.9 0.00 0.00 0.00 94 1012.3
20260510135117 54 245 0.0 0.9 0.00 0.00 0.00 96 1012.1
20260510134614 53 248 0.0 0.9 0.00 0.00 0.00 97 1011.9
20260510134111 53 248 0.0 0.0 0.00 0.00 0.00 98 1012.1
20260510133608 52 248 0.9 0.9 0.00 0.00 0.00 98 1011.9
20260510133103 52 248 0.0 0.0 0.00 0.00 0.00 98 1011.9
20260510132600 52 248 0.0 0.0 0.00 0.00 0.00 98 1012.0
20260510132057 52 248 0.0 0.0 0.00 0.00 0.00 98 1012.0
20260510131555 52 248 0.0 0.9 0.00 0.00 0.00 99 1012.5
20260510131052 52 248 0.0 0.0 0.00 0.00 0.00 99 1011.6
20260510130548 52 248 0.0 0.0 0.00 0.00 0.00 99 1011.7
20260510130046 52 248 0.0 0.0 0.00 0.00 0.00 99 1011.9
20260510125542 52 248 0.0 0.0 0.00 0.00 0.00 99 1011.7
20260510125038 52 248 0.0 0.0 0.00 0.00 0.00 99 1011.6
20260510124535 52 248 0.0 0.0 0.00 0.00 0.00 99 1011.4
20260510124032 50 248 0.0 0.0 0.00 0.00 0.00 99 1011.3
20260510123527 50 248 0.0 0.0 0.00 0.00 0.00 99 1011.3
20260510123024 50 248 0.0 0.0 0.00 0.00 0.00 99 1011.1
20260510122519 50 248 0.0 0.0 0.00 0.00 0.00 99 1011.2
20260510122015 50 248 0.0 0.0 0.00 0.00 0.00 99 1011.3
20260510121513 50 248 0.0 0.0 0.00 0.00 0.00 99 1011.3
20260510121010 50 248 0.0 0.0 0.00 0.00 0.00 99 1011.3
20260510120508 50 248 0.0 0.0 0.00 0.00 0.00 99 1011.4
20260510120003 50 248 0.9 0.9 0.00 0.00 0.00 99 1011.3
20260510115501 50 248 0.9 0.9 0.00 0.00 0.00 99 1011.3
20260510114956 50 248 0.9 0.9 0.00 0.00 0.00 99 1011.1
20260510114453 50 248 0.0 0.0 0.00 0.00 0.00 99 1010.9
20260510113949 50 248 0.0 0.0 0.00 0.00 0.00 99 1010.7
20260510113444 50 248 0.0 0.0 0.00 0.00 0.00 99 1010.7
20260510112942 50 248 0.0 0.0 0.00 0.00 0.00 99 1010.6
20260510112439 50 248 0.0 0.9 0.00 0.00 0.00 99 1011.0
20260510111935 49 248 0.0 0.0 0.00 0.00 0.00 99 1010.8
20260510111431 49 248 0.0 0.0 0.00 0.00 0.00 99 1010.8
20260510110927 49 248 0.0 0.0 0.00 0.00 0.00 99 1010.9
20260510110424 49 248 0.9 1.7 0.00 0.00 0.00 99 1010.8
20260510105920 49 268 0.0 0.0 0.00 0.00 0.00 99 1010.6
20260510105415 49 268 0.0 0.9 0.00 0.00 0.00 99 1010.5
20260510104910 49 296 0.0 0.0 0.00 0.00 0.00 99 1010.7
20260510104408 49 258 0.0 0.0 0.00 0.00 0.00 99 1010.1
20260510103904 49 259 0.0 0.0 0.00 0.00 0.00 99 1010.3
20260510103401 48 269 0.0 0.0 0.00 0.00 0.00 99 1010.4
20260510102856 48 271 0.9 0.9 0.00 0.00 0.00 99 1010.3
20260510102352 48 271 0.0 0.0 0.00 0.00 0.00 99 1010.3
20260510101850 48 271 0.0 0.9 0.00 0.00 0.00 99 1010.3
20260510101348 48 271 0.0 0.9 0.00 0.00 0.00 99 1010.1
20260510100844 48 271 0.0 0.0 0.00 0.00 0.00 99 1009.9
20260510100342 48 271 0.0 0.0 0.00 0.00 0.00 99 1010.1
20260510095838 48 271 0.0 0.0 0.00 0.00 0.00 99 1009.9
20260510095333 48 271 0.0 0.0 0.00 0.00 0.00 99 1009.8
20260510094832 48 271 0.0 0.0 0.00 0.00 0.00 99 1009.5
20260510094327 48 271 0.0 0.0 0.00 0.00 0.00 99 1009.5
20260510093824 48 271 0.0 0.0 0.00 0.00 0.00 99 1009.5
20260510093320 48 271 0.0 0.0 0.00 0.00 0.00 99 1009.5
20260510092816 48 271 0.0 0.0 0.00 0.00 0.00 99 1009.6
20260510092312 48 271 0.0 0.0 0.00 0.00 0.00 99 1009.4
20260510091808 48 271 0.0 0.0 0.00 0.00 0.00 99 1009.4
20260510091306 48 271 0.0 0.0 0.00 0.00 0.00 99 1009.3
20260510090802 48 271 0.0 0.0 0.00 0.00 0.00 99 1009.2
20260510090259 48 271 0.0 0.0 0.00 0.00 0.00 99 1009.1
20260510085755 48 271 0.0 0.0 0.00 0.00 0.00 99 1009.5
20260510085254 48 271 0.0 0.0 0.00 0.00 0.00 99 1009.2
20260510084751 48 271 0.0 0.0 0.00 0.00 0.00 99 1009.3
20260510084248 48 271 0.0 0.0 0.00 0.00 0.00 99 1009.3
20260510083745 48 271 0.0 0.0 0.00 0.00 0.00 99 1009.2
20260510083242 48 271 0.0 0.0 0.00 0.00 0.00 99 1009.0
20260510082737 48 271 0.0 0.0 0.00 0.00 0.00 99 1009.3
20260510082234 48 271 0.0 0.0 0.00 0.00 0.00 99 1009.2
20260510081733 50 271 0.0 0.0 0.00 0.00 0.00 99 1009.3
20260510081230 50 271 0.0 0.0 0.00 0.00 0.00 99 1009.4
20260510080724 50 271 0.0 0.0 0.00 0.00 0.00 99 1009.1
20260510080221 50 271 0.0 0.0 0.00 0.00 0.00 99 1009.5
20260510075717 50 271 0.0 0.0 0.00 0.00 0.00 99 1009.4
20260510075215 50 271 0.0 0.0 0.00 0.00 0.00 99 1009.4
20260510074712 50 271 0.0 0.0 0.00 0.00 0.00 99 1009.4
20260510074209 50 271 0.0 0.0 0.00 0.00 0.00 99 1009.4
20260510073705 50 271 0.0 0.0 0.00 0.00 0.00 99 1009.0
20260510073201 50 271 0.0 0.0 0.00 0.00 0.00 99 1009.5
20260510072657 50 271 0.0 0.0 0.00 0.00 0.00 99 1009.1
20260510072154 50 271 0.0 0.9 0.00 0.00 0.00 99 1008.7
20260510071650 50 271 0.9 0.9 0.00 0.00 0.00 99 1008.5
20260510071147 50 271 0.0 0.0 0.00 0.00 0.00 99 1009.1
20260510070645 50 271 0.0 0.9 0.00 0.00 0.00 98 1008.7
20260510070142 50 271 0.0 0.0 0.00 0.00 0.00 98 1009.0
20260510065637 50 272 0.0 0.0 0.00 0.00 0.00 98 1009.2
20260510065133 50 272 0.0 0.0 0.00 0.00 0.00 98 1009.3
20260510064630 50 272 0.0 0.0 0.00 0.00 0.00 98 1009.5
20260510064127 50 272 0.0 0.0 0.00 0.00 0.00 98 1009.6
20260510063624 50 271 0.0 0.0 0.00 0.00 0.00 98 1009.6
20260510063121 50 271 0.0 0.0 0.00 0.00 0.00 98 1009.7
20260510062616 50 271 0.0 0.0 0.00 0.00 0.00 98 1009.7
20260510062112 50 271 0.0 0.0 0.00 0.00 0.00 98 1009.9
20260510061608 50 271 0.0 0.0 0.00 0.00 0.00 98 1009.9
20260510061106 50 271 0.0 0.0 0.00 0.00 0.00 98 1010.0
20260510060601 50 271 0.0 0.0 0.00 0.00 0.00 98 1010.3
20260510060058 50 271 0.0 0.0 0.00 0.00 0.00 98 1010.2
20260510055554 50 271 0.0 0.0 0.00 0.00 0.00 98 1010.4
20260510055053 50 271 0.0 0.0 0.00 0.00 0.00 98 1010.1
20260510054549 50 271 0.0 0.0 0.00 0.00 0.00 98 1010.1
20260510054043 50 271 0.0 0.0 0.00 0.00 0.00 98 1009.8
20260510053538 50 271 0.0 0.0 0.00 0.00 0.00 98 1009.7
20260510053035 50 271 0.0 0.0 0.00 0.00 0.00 98 1009.4
20260510052531 50 271 0.0 0.0 0.00 0.00 0.00 98 1009.5
20260510052027 50 271 0.0 0.0 0.00 0.00 0.00 98 1009.4
20260510051523 50 273 0.0 0.0 0.00 0.00 0.00 98 1009.3
20260510051020 50 273 0.0 0.0 0.00 0.00 0.00 98 1009.4
20260510050517 50 273 0.0 0.0 0.00 0.00 0.00 98 1009.2
20260510050014 50 273 0.0 0.0 0.00 0.00 0.00 97 1009.2
20260510045511 51 272 0.0 0.0 0.00 0.00 0.00 97 1009.1
20260510045007 51 275 0.0 0.0 0.00 0.00 0.00 97 1009.3
20260510044504 51 275 0.0 0.0 0.00 0.00 0.00 97 1009.1
20260510044001 51 275 0.0 0.9 0.00 0.00 0.00 97 1009.3
20260510043456 51 278 0.0 0.0 0.00 0.00 0.00 97 1009.2
20260510042955 51 279 0.0 0.0 0.00 0.00 0.00 97 1009.1
20260510042451 51 279 0.0 0.0 0.00 0.00 0.00 97 1009.2
20260510041947 51 279 0.9 0.9 0.00 0.00 0.00 97 1009.4
20260510041444 51 294 0.0 0.9 0.00 0.00 0.00 97 1009.3
20260510040942 51 228 0.0 0.0 0.00 0.00 0.00 97 1009.3
20260510040438 51 228 0.0 0.9 0.00 0.00 0.00 97 1009.3
20260510035934 51 228 0.9 0.9 0.00 0.00 0.00 97 1009.4
20260510035431 51 228 0.0 0.9 0.00 0.00 0.00 97 1009.4
20260510034930 51 280 0.0 0.9 0.00 0.00 0.00 97 1009.5
20260510034430 51 321 0.0 0.0 0.00 0.00 0.00 97 1009.3
20260510033925 51 308 0.0 0.0 0.00 0.00 0.00 97 1009.0
20260510033422 51 132 0.0 0.9 0.00 0.00 0.00 97 1009.1
20260510032918 51 226 0.9 1.7 0.00 0.00 0.00 97 1009.1
20260510032415 51 215 0.9 1.7 0.00 0.00 0.00 97 1009.3
20260510031911 51 222 0.9 0.9 0.00 0.00 0.00 97 1009.4
20260510031406 51 188 0.9 2.6 0.00 0.00 0.00 97 1009.1
20260510030907 51 258 0.0 2.6 0.00 0.00 0.00 97 1009.3
20260510030403 51 247 0.0 0.9 0.00 0.00 0.00 97 1009.0
20260510025901 51 249 0.9 1.7 0.00 0.00 0.00 97 1009.2
20260510025358 51 301 0.9 0.9 0.00 0.00 0.00 97 1009.1
20260510024855 51 224 0.0 0.9 0.00 0.00 0.00 97 1009.1
20260510024352 51 326 0.0 0.9 0.00 0.00 0.00 96 1009.3
20260510023848 51 290 0.9 2.6 0.00 0.00 0.00 96 1009.1
20260510023344 51 271 0.0 0.9 0.00 0.00 0.00 97 1009.3
20260510022842 51 256 0.0 0.0 0.00 0.00 0.00 96 1009.1
20260510022341 51 217 1.7 1.7 0.00 0.00 0.00 96 1009.3
20260510021840 51 318 0.9 1.7 0.00 0.00 0.00 97 1009.4
20260510021338 51 215 1.7 1.7 0.00 0.00 0.00 97 1009.4
20260510020834 51 276 0.0 0.9 0.00 0.00 0.00 97 1009.4
20260510020334 51 191 0.0 0.0 0.00 0.00 0.00 97 1009.0
20260510015830 51 273 0.0 0.9 0.00 0.00 0.00 97 1009.4
20260510015326 51 311 0.0 0.9 0.00 0.00 0.00 97 1009.3
20260510014822 51 80 0.0 0.9 0.00 0.00 0.00 97 1009.2
20260510014319 51 80 0.9 1.7 0.00 0.00 0.00 97 1009.0
20260510013815 51 94 0.0 1.7 0.00 0.00 0.00 97 1009.5
20260510013311 51 336 0.0 0.9 0.00 0.00 0.00 97 1009.4
20260510012807 51 40 0.0 0.0 0.00 0.00 0.00 97 1009.3
20260510012307 51 39 0.0 0.9 0.00 0.00 0.00 97 1009.1
20260510011807 51 30 0.0 0.9 0.00 0.00 0.00 97 1009.1
20260510011302 51 30 0.0 0.9 0.00 0.00 0.00 97 1009.2
20260510010759 51 27 0.0 0.9 0.00 0.00 0.00 97 1009.2
20260510010256 51 335 0.0 0.9 0.00 0.00 0.00 97 1009.3
20260510005753 51 334 0.0 0.9 0.00 0.00 0.00 97 1009.1
20260510005249 51 334 0.0 0.9 0.00 0.00 0.00 97 1009.2
20260510004747 51 326 0.0 0.0 0.00 0.00 0.00 97 1008.9
20260510004244 51 326 0.0 0.0 0.00 0.00 0.00 97 1008.8
20260510003742 51 326 0.0 0.0 0.00 0.00 0.00 97 1009.0
20260510003238 51 326 0.0 0.0 0.00 0.00 0.00 97 1009.2
20260510002736 51 326 0.0 0.0 0.00 0.00 0.00 97 1009.1
20260510002235 51 326 0.0 0.0 0.00 0.00 0.00 97 1009.0
20260510001731 51 326 0.0 0.0 0.00 0.00 0.00 97 1009.0
20260510001230 51 326 0.0 0.0 0.00 0.00 0.00 97 1009.0
20260510000725 51 326 0.0 0.9 0.00 0.00 0.00 97 1009.0
20260510000223 51 326 0.0 0.0 0.00 0.00 0.00 97 1008.8
20260509235720 51 326 0.0 0.0 0.00 0.00 0.00 97 1008.8
20260509235216 51 326 0.0 0.0 0.00 0.00 0.00 97 1008.7
20260509234712 51 326 0.0 0.0 0.00 0.00 0.00 97 1008.6
20260509234209 51 326 0.0 0.0 0.00 0.00 0.00 97 1008.4
20260509233708 51 326 0.0 0.0 0.00 0.00 0.00 97 1008.3
20260509233205 51 326 0.0 0.9 0.00 0.00 0.00 97 1008.5
20260509232701 51 325 0.0 0.9 0.00 0.00 0.00 97 1008.6
20260509232157 51 325 0.0 0.9 0.00 0.00 0.00 96 1008.3
20260509231654 52 325 0.0 0.9 0.00 0.00 0.00 96 1008.3
20260509231152 52 325 0.0 0.0 0.00 0.00 0.00 96 1008.3
20260509230649 52 325 0.0 0.9 0.00 0.00 0.00 96 1008.1
20260509230145 52 326 0.9 0.9 0.00 0.00 0.00 96 1008.2
20260509225641 51 325 0.0 0.0 0.00 0.00 0.00 96 1008.2
20260509225137 51 322 0.0 0.0 0.00 0.00 0.00 97 1008.3
20260509224632 51 318 0.9 0.9 0.00 0.00 0.00 97 1008.3
20260509224129 51 308 0.0 0.9 0.00 0.00 0.00 97 1008.3
20260509223626 51 306 0.0 0.0 0.00 0.00 0.00 97 1008.3
20260509223124 51 306 0.0 0.0 0.00 0.00 0.00 97 1008.3
20260509222620 51 298 0.0 0.0 0.00 0.00 0.00 97 1008.2
20260509222116 51 291 0.0 0.9 0.00 0.00 0.00 97 1008.2
20260509221612 51 100 0.0 0.0 0.00 0.00 0.00 97 1008.1
20260509221108 50 100 0.0 0.0 0.00 0.00 0.00 97 1008.3
20260509220604 50 100 0.0 0.9 0.00 0.00 0.00 97 1008.3
20260509220100 50 100 0.0 0.0 0.00 0.00 0.00 97 1008.5
20260509215555 50 100 0.9 0.9 0.00 0.00 0.00 97 1008.4
20260509215054 50 100 0.0 0.9 0.00 0.00 0.00 97 1008.6
20260509214550 50 100 0.0 0.9 0.00 0.00 0.00 97 1008.6
20260509214047 50 100 0.0 0.0 0.00 0.00 0.00 97 1008.8
20260509213543 50 100 0.0 0.0 0.00 0.00 0.00 97 1008.9
20260509213040 50 100 0.0 0.0 0.00 0.00 0.00 97 1008.8
20260509212537 50 100 0.0 0.0 0.00 0.00 0.00 97 1008.7
20260509212034 50 99 0.0 0.9 0.00 0.00 0.00 97 1008.9
20260509211530 50 99 0.0 0.9 0.00 0.00 0.00 97 1008.7
20260509211027 50 84 0.9 0.9 0.00 0.00 0.00 97 1009.0
20260509210524 50 206 0.0 0.0 0.00 0.00 0.00 97 1009.0
20260509210020 49 205 0.0 0.9 0.00 0.00 0.00 96 1009.1
20260509205514 49 310 0.0 0.0 0.00 0.00 0.00 96 1009.0
20260509205010 49 259 0.9 0.9 0.00 0.00 0.00 96 1008.9
20260509204507 49 325 0.9 1.7 0.00 0.00 0.00 96 1009.2
20260509204003 49 300 0.9 0.9 0.00 0.00 0.00 96 1009.1
20260509203459 49 69 0.0 0.9 0.00 0.00 0.00 96 1009.0
20260509202956 49 66 0.0 0.0 0.00 0.00 0.00 96 1009.2
20260509202452 49 44 0.0 0.9 0.00 0.00 0.00 96 1009.3
20260509201947 49 198 0.0 0.9 0.00 0.00 0.00 96 1009.1
20260509201443 49 210 0.0 0.0 0.00 0.00 0.00 96 1009.3
20260509200940 49 105 0.0 0.9 0.00 0.00 0.00 96 1009.4
20260509200440 49 211 1.7 2.6 0.00 0.00 0.00 96 1009.3
20260509195937 49 222 1.7 1.7 0.00 0.00 0.00 96 1009.5
20260509195433 49 284 0.0 0.9 0.00 0.00 0.00 96 1009.6
20260509194932 49 331 0.0 0.9 0.00 0.00 0.00 96 1009.8
20260509194428 49 327 0.9 0.9 0.00 0.00 0.00 96 1009.8
20260509193925 49 293 0.9 1.7 0.00 0.00 0.00 96 1010.1
20260509193425 49 249 0.9 0.9 0.00 0.00 0.00 96 1009.9
20260509192921 48 303 0.0 0.9 0.00 0.00 0.00 96 1009.9
20260509192417 48 297 0.0 0.9 0.00 0.00 0.00 96 1009.9
20260509191913 48 230 0.9 2.6 0.00 0.00 0.00 96 1009.7
20260509191408 48 309 0.9 0.9 0.00 0.00 0.00 96 1009.9
20260509190905 48 228 1.7 2.6 0.00 0.00 0.00 95 1009.8
20260509190402 48 158 0.9 3.5 0.00 0.00 0.00 95 1009.9
20260509185859 48 207 1.7 2.6 0.00 0.00 0.00 96 1010.0
20260509185356 48 351 0.9 1.7 0.00 0.00 0.00 96 1009.9
20260509184853 48 293 0.0 0.9 0.00 0.00 0.00 96 1010.1
20260509184350 48 263 0.9 0.9 0.00 0.00 0.00 96 1010.0
20260509183847 48 167 0.0 0.9 0.00 0.00 0.00 96 1010.1
20260509183342 48 236 0.9 0.9 0.00 0.00 0.00 96 1009.9
20260509182838 47 39 0.9 1.7 0.00 0.00 0.00 95 1010.1
20260509182335 47 276 0.0 0.9 0.00 0.00 0.00 95 1010.0
20260509181832 47 292 0.9 0.9 0.00 0.00 0.00 95 1010.1
20260509181329 47 260 0.9 1.7 0.00 0.00 0.00 95 1010.1
20260509180827 47 312 0.9 2.6 0.00 0.00 0.00 96 1010.1
20260509180323 47 320 0.0 0.0 0.00 0.00 0.00 95 1010.0
20260509175820 47 214 1.7 2.6 0.00 0.00 0.00 95 1010.3
20260509175316 48 262 0.0 1.7 0.00 0.00 0.00 95 1010.1
20260509174812 47 244 0.0 1.7 0.00 0.00 0.00 96 1010.1
20260509174308 47 217 0.0 0.9 0.00 0.00 0.00 96 1010.1
20260509173804 47 175 0.0 0.0 0.00 0.00 0.00 96 1010.3
20260509173259 47 286 0.0 0.9 0.00 0.00 0.00 96 1010.2
20260509172755 47 192 2.6 2.6 0.00 0.00 0.00 96 1010.2
20260509172253 47 1 0.0 0.0 0.00 0.00 0.00 95 1010.4
20260509171748 47 217 0.9 0.9 0.00 0.00 0.00 95 1010.4
20260509171244 47 218 0.0 0.0 0.00 0.00 0.00 95 1010.4
20260509170741 47 217 0.9 0.9 0.00 0.00 0.00 95 1010.5
20260509170237 47 215 0.9 1.7 0.00 0.00 0.00 95 1010.3
20260509165736 47 207 2.6 3.5 0.00 0.00 0.00 95 1010.6
20260509165231 47 234 0.9 0.9 0.00 0.00 0.00 95 1010.7
20260509164727 47 186 3.5 3.5 0.00 0.00 0.00 95 1010.6
20260509164223 47 187 0.0 2.6 0.00 0.00 0.00 95 1010.7
20260509163721 47 193 0.0 2.6 0.00 0.00 0.00 95 1011.1
20260509163217 47 255 0.0 0.9 0.00 0.00 0.00 95 1010.9
20260509162715 47 202 0.9 0.9 0.00 0.00 0.00 95 1011.0
20260509162210 46 293 0.9 0.9 0.00 0.00 0.00 96 1010.8
20260509161706 46 28 0.9 0.9 0.00 0.00 0.00 96 1011.1
20260509161202 46 52 0.9 1.7 0.00 0.00 0.00 96 1011.1
20260509160657 46 340 0.9 0.9 0.00 0.00 0.00 96 1011.1
20260509160153 46 272 0.0 0.0 0.00 0.00 0.00 96 1011.3
20260509155649 45 271 0.0 0.9 0.00 0.00 0.00 96 1011.5
20260509155146 45 311 0.0 0.9 0.00 0.00 0.00 96 1011.6
20260509154641 45 187 0.9 0.9 0.00 0.00 0.00 96 1011.7
20260509154139 45 313 0.0 0.9 0.00 0.00 0.00 96 1011.9
20260509153636 45 267 0.0 1.7 0.00 0.00 0.00 96 1011.9
20260509153132 45 206 0.9 1.7 0.00 0.00 0.00 96 1011.9
20260509152628 45 235 0.9 0.9 0.00 0.00 0.00 96 1011.5
20260509152126 45 210 3.5 3.5 0.00 0.00 0.00 96 1011.6
20260509151622 44 356 0.0 0.0 0.00 0.00 0.00 96 1011.7
20260509151120 45 357 0.0 0.0 0.00 0.00 0.00 96 1011.9
20260509150617 44 358 0.0 1.7 0.00 0.00 0.00 96 1012.1
20260509150115 44 354 0.0 0.0 0.00 0.00 0.00 96 1012.0
20260509145611 44 354 0.9 0.9 0.00 0.00 0.00 96 1012.0
20260509145106 44 354 0.0 0.9 0.00 0.00 0.00 96 1012.0
20260509144604 44 354 0.9 0.9 0.00 0.00 0.00 96 1012.1
20260509144100 44 354 0.0 0.9 0.00 0.00 0.00 96 1011.7
20260509143557 44 354 0.0 0.0 0.00 0.00 0.00 96 1011.9
20260509143055 44 354 0.0 0.9 0.00 0.00 0.00 95 1011.7